Regional Weather Roundup
Issued by NWS

Home | Current Version | Previous Version | Graphics & Text | Print | Product List | Glossary Off
Versions: 1 2 3 4 5 6 7 8 9 10 11 12 13 14 15 16 17 18 19 20 21 22 23 24 25 26 27 28 29 30 31 32 33 34 35 36 37 38 39 40 41 42 43 44 45 46 47 48 49 50

000
ASUS43 KDTX 021010
RWRMI
MICHIGAN HOURLY REGIONAL WEATHER ROUNDUP
NATIONAL WEATHER SERVICE DETROIT/PONTIAC MI
ISSUED BY NATIONAL WEATHER SERVICE GRAND RAPIDS MI
500 AM EST FRI DEC 02 2016

NOTE: "FAIR" INDICATES FEW OR NO CLOUDS BELOW 12,000 FEET WITH NO
SIGNIFICANT WEATHER AND/OR OBSTRUCTION TO VISIBILITY.

MIZ047>049-052>055-059>063-066>070-074>076-081>083-021100-
SOUTHEAST LOWER MICHIGAN

CITY           SKY/WX    TMP DP  RH WIND       PRES   REMARKS
ADRIAN         CLOUDY    37  33  85 W9        29.98S WCI  30
ALMA           CLOUDY    36  34  94 W5        29.94R WCI  32
ANN ARBOR      CLOUDY    37  35  92 SW9       29.95R WCI  30
BAD AXE        CLOUDY    37  30  77 W12G18    29.88S WCI  29
DETROIT CITY   CLOUDY    39  35  86 W12G18    29.94R WCI  32
DETROIT        CLOUDY    38  33  82 SW13      29.96R WCI  30
FLINT          CLOUDY    38  34  85 W14       29.93R WCI  30
GROSSE ILE     CLOUDY    37  32  83 W9        29.96R WCI  30
HILLSDALE      CLOUDY    34  32  93 SW12      29.96R WCI  25
HOWELL         CLOUDY    37  34  90 W8        29.93R WCI  31

CITY           SKY/WX    TMP DP  RH WIND       PRES   REMARKS
JACKSON        FRZ RAIN  35  32  88 NW9       29.96R WCI  28
LANSING        LGT RAIN  37  32  82 W9        29.95S WCI  30
MASON          CLOUDY    37  35  94 SW7       29.94S WCI  31
MONROE         CLOUDY    37  33  87 W12       29.97R WCI  29
MT. CLEMENS    CLOUDY    39  35  86 W10       29.90S WCI  32
PONTIAC        LGT RAIN  37  33  85 W12       29.92R WCI  29
PORT HOPE        N/A     38  28  67 W12G23    29.85R WCI  30
PORT HURON     CLOUDY    39  34  81 SW6       29.90S WCI  35
TRI CITIES     CLOUDY    36  34  92 W8        29.93R WCI  30
YPSILANTI      CLOUDY    39  35  86 W13       29.96R WCI  31
$$
MIZ043>046-050>051-056>058-064>065-071>073-077>080-021100-
SOUTHWEST LOWER MICHIGAN

CITY           SKY/WX    TMP DP  RH WIND       PRES   REMARKS
BATTLE CREEK   RAIN      35  34  96 W7        29.98R FOG     WCI  29
BENTON HARBOR  CLOUDY    40  30  67 W14       30.01R WCI  32
BIG RAPIDS     CLOUDY    35  31  88 W5        29.93R WCI  31
COLDWATER      CLOUDY    37  32  85 W10       29.99R WCI  29
HOLLAND        LGT RAIN  39  35  86 NW9       29.98R WCI  33
GRAND RAPIDS   CLOUDY    38  31  76 W8        29.96R WCI  32
KALAMAZOO      CLOUDY    37  33  85 SW9       29.98R WCI  30
MARSHALL       DRIZZLE   36  35  94 W8        29.96R WCI  30
MOUNT PLEASANT CLOUDY    35  31  88 NW5       29.93R WCI  31
MUSKEGON       CLOUDY    40  26  57 NW13G23   29.97R WCI  32
STURGIS        MIX PCPN  36  32  87 W13       29.99S WCI  27
$$
MIZ016>042-021100-
NORTHERN LOWER MICHIGAN

CITY           SKY/WX    TMP DP  RH WIND       PRES   REMARKS
ALPENA         MOCLDY    35  28  75 W10       29.84R WCI  27
BEAVER ISLAND  CLOUDY    34  30  83 W12G21    29.90R WCI  26
BELLAIRE       CLOUDY    35  29  78 NW8       29.92R WCI  28
CADILLAC       CLOUDY    32  28  86 W5        29.90R WCI  27
CHARLEVOIX     CLOUDY    37  29  74 NW16G23   29.93R WCI  27
GAYLORD        CLOUDY    32  28  85 W12G20    29.85R WCI  23
HOUGHTON LAKE  CLOUDY    32  26  78 W16G22    29.89R WCI  21
MANISTEE       LGT RAIN  36  28  73 NW12      29.95R WCI  28
OSCODA         PTCLDY    35  29  79 MISG      29.86R
PELLSTON       CLOUDY    35  28  75 W14       29.86R WCI  26
TRAVERSE CITY  CLOUDY    34  29  82 W8        29.92R WCI  27
LUDINGTON      CLOUDY    36  27  68 NW7       29.96R WCI  30
$$
MIZ007>008-015-021100-
EASTERN UPPER MICHIGAN

CITY           SKY/WX    TMP DP  RH WIND       PRES   REMARKS
KINROSS        LGT SNOW  32  32 100 W9        29.81R FOG     WCI  24
MACKINAC ISLAN FLURRIES  33  33  99 W17G23    29.83R WCI  22
NEWBERRY       LGT SNOW  32  32  99 W10       29.84R WCI  24
S. S. MARIE    LGT SNOW  34  32  92 NW7       29.79R FOG     WCI  28
$$
MIZ004>006-011>014-085-021100-
CENTRAL UPPER MICHIGAN

CITY           SKY/WX    TMP DP  RH WIND       PRES   REMARKS
MANISTIQUE     CLOUDY    32  27  82 W12G18    29.90R WCI  23
ESCANABA       CLOUDY    31  24  75 W7        29.97R WCI  24
MENOMINEE      CLEAR     30  24  78 NW7       30.00R WCI  23
SAWYER-GWINN   CLOUDY    29  24  84 W9        29.93R WCI  20
$$
MIZ001>003-009>011-084-021100-
WESTERN UPPER MICHIGAN

CITY           SKY/WX    TMP DP  RH WIND       PRES   REMARKS
IRON MOUNTAIN  CLOUDY    29  23  78 NW10      29.95R WCI  20
HOUGHTON       LGT SNOW  30  26  85 NW13      29.95R FOG     WCI  20
COPPER HARBOR    N/A     34  31  88 N21       29.94R WCI  22
IRONWOOD       CLOUDY    28  25  88 NW7       30.02R WCI  21
$$

ABBREVIATIONS USED IN REMARKS
   TC - TEMPERATURE IN CELSIUS
  WCI - WIND CHILL INDEX
   HX - HEAT INDEX
  VSB - VISIBILITY





USA.gov is the U.S. government's official web portal to all federal, state and local government web resources and services.